Location: Eschertshofen
(49.3064°N, 11.5756°E)
Time: 01:44:01
(UTC+00:00)

Iridium 26 - Pass Details

Date: 26 September 2021
Orbit: 772 x 775 km, 86.4° (Epoch: 21 October)

Event Time Altitude Azimuth Distance (km) Brightness Sun altitude
Exits shadow 22:03:09 15° 310° (NW) 1,980 8.1 -40.5°
Drops below altitude 10° 22:05:05 10° 331° (NNW) 2,333 8.6 -40.6°
Sets 22:08:19 0° 352° (N) 3,265 9.6 -40.8°
